[[{"header":{"parameterUnit":"m.s-1","parameterCategory":1,"la1":30.2991,"la2":30.254,"lo1":-89.0895,"lo2":-89.0444,"dy":0.0017,"dx":0.0017,"nx":28,"ny":28,"refTime":"2025-03-25T09:00:00:Z","depth":0,"parameterNumber":2,"parameterNumberName":"U-component_of_WINDS"},"data":[0,0,0,0,0,0,0,0,0,0,0,0,0,0,0,0,0,0,0,0,0,0,0,0,0,0,0,0,0,0,0,0,0,0,0,0,0,0,0,0,0,0,0,0,0,0,0,0,0,0,0,0,0,0,0,0,0,0,1.765,1.7651,0,1.7759,1.7761,1.7762,1.7763,1.7762,1.776,1.7759,1.7872,1.7876,1.7881,0,0,0,0,0,0,0,0,0,0,0,0,0,1.744,1.7444,1.765,1.7651,1.7652,1.7759,1.7761,1.7762,1.7763,1.7762,1.776,1.7758,1.7871,1.7876,1.7881,0,0,0,0,0,0,0,0,0,0,0,0,0,1.7539,1.7445,1.7649,1.7666,1.7668,1.7759,1.7761,1.7763,1.7764,1.7761,1.7759,1.7757,1.7869,1.7875,1.7882,1.7964,0,0,1.7901,1.7904,0,0,0,0,0,0,0,0,1.7533,1.7547,1.7662,1.7665,1.7668,1.7745,1.7729,1.783,1.7764,1.7727,1.7759,1.7756,1.7832,1.7841,1.7866,1.7969,1.7974,1.7902,1.7906,1.7909,1.7911,0,0,0,0,0,0,0,1.7526,1.7542,1.7693,1.7664,1.7667,1.7667,1.7679,1.7748,1.779,1.773,1.7731,1.7744,1.7833,1.786,1.7869,1.7976,1.7902,1.7908,1.7912,1.7914,1.815,1.8152,0,0,0,0,0,0,1.7516,1.7536,1.769,1.7696,1.7594,1.7673,1.7686,1.7723,1.7789,1.7797,1.7745,1.7743,1.785,1.7861,1.7873,1.7972,1.7909,1.7915,1.7918,1.8147,1.815,1.8153,0,0,0,0,0,0,1.7512,1.753,1.7685,1.7616,1.7636,1.7679,1.772,1.7726,1.7753,1.7801,1.7808,1.7765,1.7849,1.7864,1.7941,1.7976,1.7918,1.7924,1.8145,1.8148,1.8152,1.8172,0,0,0,0,0,0,1.7506,1.7528,1.756,1.7617,1.764,1.7751,1.7722,1.773,1.7764,1.7762,1.7821,1.7829,1.7848,1.7931,1.7947,1.7984,1.7929,1.8142,1.8146,1.815,1.8169,1.8176,1.8183,0,0,0,0,0,1.7498,1.7562,1.7562,1.758,1.768,1.7753,1.7766,1.7787,1.7767,1.7799,1.7829,1.7827,1.797,1.7939,1.7957,1.7997,1.8139,1.8145,1.815,1.8166,1.8175,1.8182,0,0,0,0,0,0,1.7508,1.757,1.757,1.7654,1.7698,1.7753,1.7794,1.7796,1.7847,1.7844,1.7867,1.788,1.7957,1.7985,1.7949,1.8079,1.8052,1.8061,1.8058,1.8067,1.8074,1.8065,1.7934,0,0,0,0,0,1.752,1.7574,1.7625,1.7694,1.7717,1.7752,1.7784,1.7796,1.7843,1.7862,1.7898,1.7944,1.7999,1.8035,1.8088,1.8173,1.8185,1.8209,1.8216,1.8221,1.8229,1.8275,1.8286,1.817,1.817,1.817,0,0,1.7546,1.7586,1.7619,1.7697,1.7733,1.7788,1.7767,1.7827,1.7868,1.7871,1.7945,1.7974,1.8026,1.8107,1.8145,1.8132,1.8263,1.8228,1.8232,1.8237,1.8281,1.8292,1.8302,1.8174,1.8173,1.8173,0,0,1.762,1.7656,1.7717,1.7753,1.7807,1.783,1.7845,1.7899,1.7918,1.7993,1.7996,1.8045,1.814,1.8177,1.8208,1.8295,1.8295,1.8312,1.8348,1.8393,1.8402,1.841,1.844,1.845,1.8319,1.8319,1.8319,0,1.7644,1.7727,1.7748,1.7808,1.7842,1.7847,1.7908,1.7942,1.8011,1.8035,1.802,1.8138,1.8174,1.8263,1.8284,1.831,1.8327,1.8305,1.8399,1.8407,1.8415,1.8444,1.8455,1.8321,1.8321,1.8321,1.8321,0,1.7754,1.7812,1.7855,1.7921,1.796,1.802,1.805,1.8087,1.8095,1.8119,1.8195,1.8238,1.83,1.8322,1.8332,1.8413,1.8403,1.8394,1.8367,1.8427,1.8455,1.8466,1.8323,1.8323,1.8322,1.8322,0,0,1.7838,1.7914,1.7929,1.7958,1.8018,1.8063,1.8124,1.8183,1.8214,1.8262,1.8312,1.8392,1.8383,1.8418,1.8432,1.8471,1.8536,1.8456,1.8458,1.8468,1.8626,1.8632,1.8645,1.8536,1.8538,1.854,1.8621,0,1.7917,1.8024,1.8044,1.8137,1.819,1.8195,1.8248,1.829,1.8314,1.8363,1.8389,1.8445,1.8429,1.8451,1.849,1.8519,1.8567,1.8514,1.8583,1.8585,1.8568,1.866,1.8667,1.8741,1.8632,1.8634,1.8636,0,1.8025,1.8074,1.8172,1.8224,1.8247,1.8293,1.8349,1.8396,1.8443,1.8458,1.8497,1.8506,1.8568,1.8539,1.8625,1.8588,1.8618,1.8637,1.864,1.8646,1.8613,1.8667,1.8766,1.8777,1.8653,1.8652,1.865,0,1.8074,1.8165,1.8235,1.826,1.8323,1.8355,1.8383,1.8429,1.8463,1.8512,1.8534,1.859,1.8621,1.8664,1.8687,1.8664,1.8771,1.8744,1.8784,1.8784,1.8806,1.8804,1.8909,1.8826,1.8826,1.8826,1.8826,0,1.816,1.822,1.8258,1.8301,1.8368,1.839,1.8456,1.8483,1.8523,1.8571,1.858,1.8624,1.8653,1.8702,1.8721,1.8788,1.8803,1.8816,1.882,1.8815,1.8813,1.8833,1.8828,1.8829,1.8828,1.8828,1.8827,0,1.8227,1.8255,1.8331,1.8384,1.8399,1.8445,1.849,1.8532,1.8556,1.8617,1.8632,1.867,1.8728,1.8756,1.8828,1.884,1.8917,1.8918,1.89,1.8902,1.894,1.8935,1.9061,1.9079,1.8985,1.8986,1.8987,0,1.8279,1.8325,1.8382,1.8415,1.8443,1.8496,1.8531,1.8555,1.8591,1.8648,1.8683,1.8741,1.8789,1.8881,1.8915,1.897,1.8972,1.9012,1.898,1.8973,1.8971,1.8968,1.8972,1.9018,1.9018,1.9019,1.902,0,1.8369,1.8381,1.8431,1.8485,1.8527,1.8571,1.8615,1.8641,1.8672,1.8711,1.8771,1.8808,1.8881,1.8938,1.8995,1.9024,1.9027,1.903,1.9042,1.9036,1.9024,1.903,1.8915,1.9027,1.9026,1.9025,1.9025,1.9025,1.843,1.847,1.8517,1.8572,1.8607,1.8647,1.8689,1.8717,1.8767,1.8828,1.8839,1.8902,1.8948,1.9025,1.9055,1.9104,1.9095,1.9112,1.9117,1.9121,1.9122,1.9016,1.9115,1.9115,1.9114,1.9114,1.9114,0,1.8519,1.8549,1.86,1.866,1.8703,1.8702,1.875,1.8786,1.8841,1.8883,1.893,1.8998,1.9053,1.9091,1.9147,1.9179,1.9182,1.9193,1.919,1.9197,1.9128,1.9111,1.919,1.919,1.919,1.919,1.919,1.919,1.8571,1.8639,1.8656,1.8741,1.8771,1.8832,1.8859,1.8896,1.893,1.9004,1.9051,1.9075,1.9115,1.9174,1.9225,1.9235,1.9255,1.9266,1.9275,1.921,1.9202,1.9194,1.9179,1.927,1.927,1.934,1.9341,1.9341]},{"header":{"parameterUnit":"m.s-1","parameterCategory":1,"la1":30.2991,"la2":30.254,"lo1":-89.0895,"lo2":-89.0444,"dy":0.0017,"dx":0.0017,"nx":28,"ny":28,"refTime":"2025-03-25T09:00:00:Z","depth":0,"parameterNumber":3,"parameterNumberName":"V-component_of_WINDS"},"data":[0,0,0,0,0,0,0,0,0,0,0,0,0,0,0,0,0,0,0,0,0,0,0,0,0,0,0,0,0,0,0,0,0,0,0,0,0,0,0,0,0,0,0,0,0,0,0,0,0,0,0,0,0,0,0,0,0,0,2.3508,2.3508,0,2.352,2.352,2.352,2.3473,2.3472,2.347,2.3469,2.348,2.3482,2.3483,0,0,0,0,0,0,0,0,0,0,0,0,0,2.3442,2.3444,2.3508,2.3508,2.3508,2.352,2.352,2.352,2.3473,2.3472,2.347,2.3468,2.348,2.3482,2.3484,0,0,0,0,0,0,0,0,0,0,0,0,0,2.3464,2.3444,2.3508,2.3486,2.3484,2.352,2.352,2.352,2.3474,2.3472,2.3469,2.3467,2.3479,2.3481,2.3484,2.354,0,0,2.3491,2.3492,0,0,0,0,0,0,0,0,2.3463,2.3466,2.3489,2.3488,2.3486,2.3493,2.3501,2.3527,2.3474,2.3478,2.3469,2.3466,2.3486,2.3488,2.3495,2.3541,2.3541,2.3491,2.3493,2.3494,2.3494,0,0,0,0,0,0,0,2.3461,2.3466,2.3512,2.3489,2.3487,2.3475,2.3476,2.3506,2.3493,2.3477,2.3474,2.3476,2.3485,2.3492,2.3494,2.3541,2.3491,2.3493,2.3495,2.3496,2.3634,2.3636,0,0,0,0,0,0,2.3463,2.3465,2.3512,2.3513,2.3469,2.3478,2.3479,2.3493,2.3493,2.3491,2.3478,2.3474,2.3489,2.3492,2.3495,2.3561,2.3494,2.3496,2.3497,2.3632,2.3635,2.3637,0,0,0,0,0,0,2.3462,2.3468,2.3511,2.3488,2.3492,2.3481,2.3497,2.3494,2.3501,2.3493,2.3491,2.3488,2.3488,2.3491,2.3529,2.3561,2.3497,2.3499,2.3629,2.3633,2.3636,2.3694,0,0,0,0,0,0,2.346,2.3467,2.3489,2.3489,2.3494,2.3547,2.3499,2.3496,2.3506,2.3501,2.3502,2.35,2.3486,2.3526,2.3532,2.3563,2.3501,2.3626,2.3631,2.3635,2.3689,2.3699,2.3707,0,0,0,0,0,2.3458,2.3505,2.3491,2.3497,2.3521,2.3549,2.3551,2.3535,2.3509,2.353,2.3525,2.35,2.3556,2.353,2.3536,2.3569,2.3624,2.363,2.3634,2.3685,2.3697,2.3707,0,0,0,0,0,0,2.3509,2.3505,2.3489,2.3537,2.3544,2.3541,2.3567,2.3548,2.3561,2.3556,2.3534,2.3535,2.3577,2.3576,2.3547,2.3623,2.3586,2.3592,2.3622,2.3633,2.3642,2.3641,2.3503,0,0,0,0,0,2.3526,2.355,2.3544,2.3587,2.3591,2.3579,2.359,2.3576,2.3582,2.3585,2.3582,2.3588,2.3607,2.362,2.3637,2.3688,2.3688,2.3713,2.3722,2.373,2.3736,2.3763,2.3774,2.3654,2.3654,2.3653,0,0,2.3562,2.3562,2.3578,2.3597,2.3601,2.3625,2.3581,2.3609,2.3626,2.3589,2.3625,2.3623,2.3628,2.3673,2.3693,2.3674,2.3769,2.3736,2.3742,2.3744,2.3769,2.3781,2.3791,2.3657,2.3656,2.3656,0,0,2.3639,2.3641,2.3678,2.3682,2.3688,2.3679,2.3688,2.3687,2.3685,2.3721,2.3693,2.3713,2.3746,2.3751,2.3757,2.3835,2.3813,2.3841,2.3888,2.3915,2.3925,2.3933,2.3961,2.3971,2.3847,2.3847,2.3847,0,2.3682,2.3718,2.3698,2.3728,2.3737,2.3704,2.374,2.3745,2.3756,2.3763,2.3742,2.3782,2.3783,2.3829,2.3848,2.3854,2.3863,2.3841,2.3925,2.3933,2.394,2.3967,2.3978,2.3851,2.385,2.385,2.385,0,2.377,2.3795,2.3824,2.3836,2.3848,2.388,2.3866,2.388,2.3865,2.3859,2.3895,2.3895,2.3912,2.3921,2.3907,2.3965,2.3953,2.3929,2.3891,2.3956,2.398,2.399,2.3856,2.3854,2.3853,2.3852,0,0,2.3881,2.3882,2.3892,2.3897,2.3901,2.3919,2.395,2.3966,2.3979,2.3987,2.4012,2.4041,2.4018,2.4026,2.4011,2.4035,2.4096,2.4007,2.4007,2.4024,2.4161,2.4179,2.4192,2.4082,2.4083,2.4085,2.416,0,2.3957,2.401,2.3994,2.4047,2.407,2.4038,2.4065,2.407,2.4064,2.4082,2.4075,2.4096,2.4064,2.4069,2.409,2.4085,2.4124,2.4079,2.4105,2.4106,2.4105,2.4204,2.4224,2.4296,2.417,2.4171,2.4172,0,2.4053,2.4066,2.4122,2.4121,2.413,2.4154,2.4167,2.4185,2.4189,2.4183,2.4192,2.4172,2.4202,2.4163,2.4203,2.4173,2.4183,2.4181,2.4184,2.4186,2.4144,2.421,2.4318,2.4329,2.4187,2.4186,2.4185,0,2.4129,2.4159,2.4197,2.4202,2.4202,2.4219,2.422,2.4223,2.4233,2.4244,2.4251,2.4265,2.4273,2.4285,2.4269,2.4243,2.4312,2.4272,2.4308,2.4308,2.4325,2.4324,2.4436,2.433,2.433,2.4329,2.4329,0,2.4216,2.4251,2.4231,2.4254,2.4292,2.4272,2.4311,2.4308,2.431,2.4332,2.4305,2.4325,2.4304,2.4322,2.431,2.4345,2.4349,2.4345,2.4342,2.4348,2.4349,2.4355,2.435,2.4332,2.4332,2.4331,2.433,0,2.4308,2.4295,2.4334,2.433,2.433,2.4359,2.4356,2.4377,2.4369,2.4396,2.4402,2.4389,2.441,2.4395,2.4415,2.4407,2.4454,2.4443,2.4453,2.445,2.4487,2.4484,2.4607,2.4623,2.4506,2.4507,2.4508,0,2.4364,2.4391,2.439,2.4403,2.4406,2.4426,2.4437,2.4417,2.443,2.4436,2.4456,2.4474,2.4488,2.4522,2.4514,2.453,2.4519,2.4562,2.4522,2.4527,2.4521,2.452,2.4522,2.457,2.4571,2.4573,2.4573,0,2.4466,2.4459,2.4475,2.449,2.4503,2.4514,2.4522,2.4533,2.4514,2.4529,2.4549,2.456,2.458,2.4598,2.4611,2.4611,2.4589,2.4586,2.4595,2.4602,2.4607,2.4606,2.4475,2.4583,2.4582,2.4582,2.4581,2.4581,2.4543,2.4565,2.4568,2.4587,2.4591,2.4599,2.4619,2.4613,2.463,2.4645,2.4632,2.4657,2.466,2.4674,2.4677,2.4696,2.4679,2.4692,2.4695,2.4699,2.4704,2.4603,2.4698,2.4698,2.4697,2.4697,2.4697,0,2.4644,2.4644,2.4662,2.4674,2.4689,2.4667,2.4674,2.4688,2.4711,2.4715,2.4729,2.4752,2.477,2.4763,2.4779,2.4795,2.4785,2.48,2.4799,2.4799,2.4719,2.471,2.4807,2.4807,2.4807,2.4807,2.4807,2.4807,2.4698,2.4735,2.4727,2.4765,2.4764,2.4789,2.4795,2.4802,2.4806,2.4833,2.4848,2.4843,2.4843,2.4858,2.4873,2.4871,2.4878,2.4896,2.489,2.4816,2.4805,2.4794,2.4786,2.4898,2.4898,2.4969,2.497,2.497]}]]